CW9676 Weather Reports


Display with metric or nautical units.
time (UTC)temp
F
wind
direction
speed
MPH
gust
MPH
rain 1hr
in
rain 24hr
in
rain mn
in
humidity
%
barometer
mb
20260510060128 70 228 9.0 18.0 0.00 0.00 0.00 19 1003.6
20260510055152 70 195 9.0 18.0 0.00 0.00 0.00 18 1003.6
20260510054158 71 228 11.0 18.0 0.00 0.00 0.00 18 1003.6
20260510053157 71 223 11.0 20.0 0.00 0.00 0.00 18 1003.4
20260510052123 71 223 10.0 20.0 0.00 0.00 0.00 18 1003.5
20260510051143 71 236 10.0 18.0 0.00 0.00 0.00 18 1003.5
20260510044942 71 253 8.0 17.0 0.00 0.00 0.00 18 1003.4
20260510043943 71 222 7.0 13.0 0.00 0.00 0.00 17 1003.4
20260510042909 71 214 7.0 13.0 0.00 0.00 0.00 17 1003.2
20260510041910 71 227 7.0 12.0 0.00 0.00 0.00 16 1003.2
20260510040934 71 231 7.0 13.0 0.00 0.00 0.00 16 1003.1
20260510034807 71 217 7.0 12.0 0.00 0.00 0.00 16 1002.8
20260510033806 71 233 5.0 10.0 0.00 0.00 0.00 16 1002.8
20260510032734 71 240 5.0 10.0 0.00 0.00 0.00 16 1002.5
20260510031711 72 229 5.0 9.0 0.00 0.00 0.00 16 1002.5
20260510025532 73 223 6.0 12.0 0.00 0.00 0.00 15 1002.1
20260510024507 73 227 7.0 14.0 0.00 0.00 0.00 15 1001.9
20260510023527 74 4 7.0 15.0 0.00 0.00 0.00 14 1001.8
20260510021350 75 200 9.0 14.0 0.00 0.00 0.00 14 1001.4
20260510020358 76 173 9.0 17.0 0.00 0.00 0.00 13 1001.3
20260510015335 77 162 11.0 17.0 0.00 0.00 0.00 13 1001.2
20260510014316 77 233 12.0 23.0 0.00 0.00 0.00 13 1001.1
20260510013324 78 4 12.0 23.0 0.00 0.00 0.00 12 1001.0
20260510012341 79 173 14.0 25.0 0.00 0.00 0.00 12 1000.9
20260510010222 80 211 14.0 24.0 0.00 0.00 0.00 12 1000.9
20260510005216 81 214 13.0 22.0 0.00 0.00 0.00 12 1000.8
20260510004208 81 186 13.0 24.0 0.00 0.00 0.00 12 1000.8
20260510003212 81 167 15.0 24.0 0.00 0.00 0.00 12 1000.8
20260510002233 82 179 12.0 27.0 0.00 0.00 0.00 12 1000.8
20260510001212 83 165 13.0 27.0 0.00 0.00 0.00 11 1000.6
20260509235020 83 157 13.0 25.0 0.00 0.00 0.00 12 1000.6
20260509233954 83 182 15.0 25.0 0.00 0.00 0.00 12 1000.6
20260509232949 85 168 10.0 25.0 0.00 0.00 0.00 12 1000.6
20260509231920 83 148 13.0 25.0 0.00 0.00 0.00 12 1000.8
20260509230926 84 212 12.0 21.0 0.00 0.00 0.00 12 1000.8
20260509224828 86 200 9.0 32.0 0.00 0.00 0.00 11 1001.1
20260509223821 84 153 13.0 32.0 0.00 0.00 0.00 11 1001.2
20260509222750 85 105 9.0 19.0 0.00 0.00 0.00 12 1001.1
20260509221740 83 142 10.0 24.0 0.00 0.00 0.00 12 1001.6
20260509215650 84 194 11.0 21.0 0.00 0.00 0.00 12 1001.8
20260509214708 85 174 10.0 18.0 0.00 0.00 0.00 12 1002.2
20260509210253 84 198 9.0 18.0 0.00 0.00 0.00 12 1002.8
20260509205251 84 76 9.0 22.0 0.00 0.00 0.00 12 1003.2
20260509203159 84 134 7.0 17.0 0.00 0.00 0.00 12 1003.4
20260509202135 84 223 8.0 17.0 0.00 0.00 0.00 12 1003.5
20260509201147 84 91 5.0 16.0 0.00 0.00 0.00 12 1003.6
20260509200130 84 134 7.0 17.0 0.00 0.00 0.00 12 1003.8
20260509195122 83 160 8.0 19.0 0.00 0.00 0.00 11 1004.1
20260509194122 83 209 9.0 19.0 0.00 0.00 0.00 11 1004.1
20260509193123 83 253 8.0 16.0 0.00 0.00 0.00 11 1004.1
20260509192130 83 238 7.0 16.0 0.00 0.00 0.00 12 1004.3
20260509190007 82 207 10.0 20.0 0.00 0.00 0.00 12 1004.5
20260509183836 81 244 10.0 17.0 0.00 0.00 0.00 13 1004.6
20260509181727 82 205 7.0 16.0 0.00 0.00 0.00 15 1004.8
20260509180735 81 235 8.0 16.0 0.00 0.00 0.00 14 1004.8
20260509175758 81 217 7.0 16.0 0.00 0.00 0.00 15 1005.0
20260509174815 81 206 7.0 14.0 0.00 0.00 0.00 16 1005.0
20260509173756 79 172 7.0 14.0 0.00 0.00 0.00 16 1005.2
20260509170441 77 150 7.0 16.0 0.00 0.00 0.00 18 1005.3
20260509165411 77 209 9.0 16.0 0.00 0.00 0.00 18 1005.3
20260509163153 76 199 7.0 14.0 0.00 0.00 0.00 19 1005.3
20260509162141 76 235 5.0 12.0 0.00 0.00 0.00 19 1005.3
20260509161144 74 190 7.0 13.0 0.00 0.00 0.00 20 1005.4
20260509160157 74 209 7.0 13.0 0.00 0.00 0.00 21 1005.5
20260509155141 73 195 7.0 13.0 0.00 0.00 0.00 21 1005.5
20260509154116 72 204 7.0 13.0 0.00 0.00 0.00 22 1005.5
20260509153106 71 155 7.0 12.0 0.00 0.00 0.00 23 1005.4
20260509152126 70 203 7.0 11.0 0.00 0.00 0.00 23 1005.4
20260509151105 70 213 6.0 11.0 0.00 0.00 0.00 24 1005.5
20260509150127 69 182 7.0 12.0 0.00 0.00 0.00 25 1005.4
20260509145104 69 192 6.0 15.0 0.00 0.00 0.00 25 1005.5
20260509142949 69 193 6.0 13.0 0.00 0.00 0.00 24 1005.4
20260509141938 69 169 4.0 11.0 0.00 0.00 0.00 24 1005.3
20260509135746 68 227 6.0 11.0 0.00 0.00 0.00 25 1005.3
20260509133613 66 230 8.0 13.0 0.00 0.00 0.00 26 1005.3
20260509132638 65 219 7.0 13.0 0.00 0.00 0.00 27 1005.2
20260509131642 64 221 8.0 12.0 0.00 0.00 0.00 28 1005.1
20260509130656 63 246 8.0 12.0 0.00 0.00 0.00 29 1005.1
20260509125651 62 236 6.0 11.0 0.00 0.00 0.00 29 1005.1
20260509124705 62 197 6.0 11.0 0.00 0.00 0.00 29 1004.9
20260509123641 62 190 6.0 11.0 0.00 0.00 0.00 30 1004.8
20260509122629 61 229 6.0 11.0 0.00 0.00 0.00 29 1004.7
20260509121602 61 226 7.0 13.0 0.00 0.00 0.00 29 1004.6
20260509120620 61 215 7.0 13.0 0.00 0.00 0.00 29 1004.5
20260509115605 62 200 7.0 12.0 0.00 0.00 0.00 29 1004.3
20260509114541 62 242 7.0 12.0 0.00 0.00 0.00 29 1004.3
20260509113541 62 229 7.0 12.0 0.00 0.00 0.00 29 1004.3
20260509112528 62 218 6.0 12.0 0.00 0.00 0.00 29 1004.4
20260509111544 62 199 6.0 12.0 0.00 0.00 0.00 29 1004.3
20260509105423 62 227 8.0 13.0 0.00 0.00 0.00 28 1004.4
20260509104403 62 211 7.0 13.0 0.00 0.00 0.00 28 1004.3
20260509103405 63 241 8.0 15.0 0.00 0.00 0.00 28 1004.3
20260509102427 63 224 7.0 15.0 0.00 0.00 0.00 28 1004.3
20260509101415 63 213 8.0 14.0 0.00 0.00 0.00 28 1004.3
20260509100340 63 204 10.0 15.0 0.00 0.00 0.00 27 1004.2
20260509095356 64 196 9.0 15.0 0.00 0.00 0.00 27 1004.3
20260509094335 64 181 9.0 17.0 0.00 0.00 0.00 27 1004.2
20260509093346 64 222 10.0 17.0 0.00 0.00 0.00 27 1004.3
20260509092357 64 240 9.0 17.0 0.00 0.00 0.00 26 1004.3
20260509091355 64 214 9.0 15.0 0.00 0.00 0.00 26 1004.3
20260509090323 64 233 9.0 16.0 0.00 0.00 0.00 26 1004.4
20260509085335 65 223 10.0 16.0 0.00 0.00 0.00 26 1004.5
20260509083250 65 230 9.0 16.0 0.00 0.00 0.00 25 1004.6
20260509082227 65 217 9.0 16.0 0.00 0.00 0.00 25 1004.6
20260509081158 65 232 10.0 16.0 0.00 0.00 0.00 25 1004.7
20260509075022 66 237 10.0 15.0 0.00 0.00 0.00 24 1004.7
20260509074004 66 213 9.0 14.0 0.00 0.00 0.00 24 1004.8
20260509073025 66 245 9.0 15.0 0.00 0.00 0.00 24 1004.9
20260509072016 66 231 9.0 16.0 0.00 0.00 0.00 23 1005.0
20260509065849 66 221 8.0 13.0 0.00 0.00 0.00 23 1005.1
20260509064908 66 213 7.0 12.0 0.00 0.00 0.00 23 1005.1
20260509063931 66 217 6.0 11.0 0.00 0.00 0.00 23 1005.1
20260509061851 66 214 6.0 10.0 0.00 0.00 0.00 22 1005.2
20260509060909 65 227 5.0 11.0 0.00 0.00 0.00 23 1005.3